Nuiqsut, AK

7:13 AM AKDT on May 28, 2017 (GMT -0800)
Nuiqsut

Weather History for PAQT - November, 2013

Change the Weather History Date:

Friday, November 15, 2013

  Actual Average (PAKU) Record (PAKU)
Temperature  
Mean Temperature 8 °F -  
Max Temperature 14 °F 4 °F 33 °F (2012)
Min Temperature 3 °F -1 °F -28 °F (1991)
Degree Days  
Heating Degree Days 56    
Moisture  
Dew Point 9 °F    
Average Humidity 93    
Maximum Humidity 100    
Minimum Humidity 84    
Precipitation  
Precipitation 0.00 in - - ()
Sea Level Pressure  
Sea Level Pressure 29.96 in    
Wind  
Wind Speed 16 mph (WSW)    
Max Wind Speed 24 mph    
Max Gust Speed -    
Visibility 6 miles    
Events Snow    
Averages and records for this station are not official NWS values.
T = Trace of Precipitation, MM = Missing Value Source: NWS Daily Summary

Daily Weather History Graph

Daily Weather History Graph

Search for Another Location

Airport or City:

Trip Planner

Search our weather history database for the weather conditions in past years. The results will help you decide how hot, cold, wet, or windy it might be!

Date:

Astronomy

Nov. 15, 2013 Rise Set
Actual Time 11:02 AM AKST 2:34 PM AKST
Civil Twilight 9:19 AM AKST 4:16 PM AKST
Nautical Twilight 7:55 AM AKST 5:40 PM AKST
Astronomical Twilight 6:42 AM AKST 6:53 PM AKST
Moon 2:49 PM AKST (11/15) 7:47 AM AKST (11/15)
Length of Visible Light 6h 56m
Length of Day
3h 31m
Waxing Gibbous, 97% of the Moon is Illuminated
Nov 15
Waxing Gibbous
Nov 17
Full
Nov 25
Last Quarter
Dec 2
New
Dec 9
First Quarter

Hourly Weather History & Observations

Time (AKST) Temp. Windchill Dew Point Humidity Pressure Visibility Wind Dir Wind Speed Gust Speed Precip Events Conditions
12:18 AM 3.2 °F -16.5 °F 1.4 °F 92% 30.01 in 6.0 mi WSW 17.3 mph - 0.00 in Snow Light Snow
12:33 AM 5.0 °F -14.2 °F 3.2 °F 92% 30.01 in 4.0 mi SW 17.3 mph - 0.00 in Snow Light Snow
12:53 AM 6.1 °F -12.2 °F 3.9 °F 91% 30.01 in 2.5 mi SW 16.1 mph - 0.00 in Snow Light Snow
12:56 AM 6.8 °F -10.7 °F 3.2 °F 85% 30.00 in 3.0 mi SW 15.0 mph - 0.00 in Snow Light Snow
1:03 AM 6.8 °F -10.0 °F 3.2 °F 85% 30.00 in 7.0 mi SW 13.8 mph - 0.00 in Snow Light Snow
1:14 AM 6.8 °F -11.3 °F 5.0 °F 92% 30.00 in 10.0 mi SW 16.1 mph - 0.00 in   Overcast
1:53 AM 7.0 °F -10.4 °F 6.1 °F 96% 30.02 in 10.0 mi SW 15.0 mph - 0.00 in   Overcast
2:53 AM 10.0 °F -7.6 °F 8.1 °F 92% 30.02 in 10.0 mi West 17.3 mph - N/A   Overcast
3:53 AM 10.9 °F -3.4 °F 9.0 °F 92% 30.03 in 10.0 mi WNW 11.5 mph - N/A   Overcast
4:53 AM 10.9 °F -2.6 °F 8.1 °F 88% 30.04 in 10.0 mi West 10.4 mph - 0.00 in   Overcast
5:53 AM 10.0 °F -2.9 °F 8.1 °F 92% 30.03 in 10.0 mi WSW 9.2 mph - 0.00 in   Overcast
6:53 AM 10.9 °F -2.6 °F 8.1 °F 88% 30.03 in 10.0 mi SSW 10.4 mph - 0.00 in   Overcast
7:53 AM 10.9 °F -3.4 °F 10.0 °F 96% 30.02 in 10.0 mi SW 11.5 mph - 0.00 in   Overcast
8:53 AM 12.9 °F -1.6 °F 10.9 °F 92% 29.99 in 10.0 mi SW 12.7 mph - N/A   Overcast
9:53 AM 12.9 °F -4.9 °F 10.9 °F 92% 29.97 in 10.0 mi SW 19.6 mph - N/A   Overcast
10:53 AM 12.9 °F -4.4 °F 10.9 °F 92% 29.98 in 7.0 mi SW 18.4 mph - N/A   Overcast
11:53 AM 12.9 °F -3.9 °F 10.0 °F 88% 29.96 in 10.0 mi SW 17.3 mph - N/A   Overcast
12:53 PM 12.9 °F -4.4 °F 10.9 °F 92% 29.94 in 8.0 mi WSW 18.4 mph - N/A   Overcast
1:53 PM 14.0 °F -3.4 °F 10.9 °F 88% 29.93 in 5.0 mi WSW 19.6 mph - N/A Snow Blowing Snow
2:53 PM 12.9 °F -6.5 °F 10.9 °F 92% 29.91 in 1.5 mi WSW 24.2 mph - 0.00 in Snow Blowing Snow
3:30 PM 12.2 °F -7.1 °F 10.4 °F 92% 29.91 in 2.5 mi WSW 23.0 mph - N/A Snow Blowing Snow
3:51 PM 12.2 °F -6.3 °F 10.4 °F 92% 29.91 in 3.0 mi WSW 20.7 mph - N/A Snow Blowing Snow
3:53 PM 10.9 °F -7.9 °F 10.0 °F 96% 29.92 in 4.0 mi WSW 20.7 mph - N/A Snow Blowing Snow
4:08 PM 10.4 °F -9.1 °F 10.4 °F 100% 29.91 in 2.0 mi WSW 21.9 mph - 0.00 in Snow Light Snow
4:24 PM 10.4 °F -8.2 °F 8.6 °F 92% 29.91 in 5.0 mi WSW 19.6 mph - 0.00 in Snow Blowing Snow
4:53 PM 10.0 °F -9.1 °F 9.0 °F 95% 29.92 in 2.5 mi WSW 20.7 mph - 0.00 in Snow Light Snow
5:01 PM 10.4 °F -8.6 °F 8.6 °F 92% 29.92 in 1.5 mi WSW 20.7 mph - 0.00 in Snow Light Snow
5:09 PM 10.4 °F -7.7 °F 8.6 °F 92% 29.92 in 3.0 mi WSW 18.4 mph - 0.00 in Snow Light Snow
5:39 PM 10.4 °F -7.2 °F 8.6 °F 92% 29.91 in 5.0 mi WSW 17.3 mph - 0.00 in Snow Blowing Snow
5:53 PM 10.9 °F -7.0 °F 9.0 °F 92% 29.91 in 4.0 mi WSW 18.4 mph - 0.00 in Snow Blowing Snow
6:53 PM 10.9 °F -5.9 °F 9.0 °F 92% 29.92 in 7.0 mi West 16.1 mph - N/A   Overcast
7:12 PM 10.4 °F -6.6 °F 10.4 °F 100% 29.92 in 3.0 mi West 16.1 mph - 0.00 in Snow Light Snow
7:23 PM 10.4 °F -6.0 °F 10.4 °F 100% 29.92 in 2.0 mi West 15.0 mph - 0.00 in Snow Light Snow
7:31 PM 10.4 °F -6.0 °F 10.4 °F 100% 29.92 in 1.8 mi WSW 15.0 mph - 0.00 in Snow Light Snow
7:39 PM 10.4 °F -6.0 °F 10.4 °F 100% 29.92 in 2.5 mi West 15.0 mph - 0.00 in Snow Light Snow
7:53 PM 10.9 °F -4.7 °F 10.0 °F 96% 29.94 in 2.0 mi West 13.8 mph - 0.00 in Snow Light Snow
8:08 PM 10.4 °F -5.4 °F 10.4 °F 100% 29.93 in 2.5 mi West 13.8 mph - 0.00 in Snow Light Snow
8:16 PM 10.4 °F -4.1 °F 10.4 °F 100% 29.93 in 3.0 mi West 11.5 mph - 0.00 in Snow Light Snow
8:53 PM 10.9 °F -1.8 °F 10.0 °F 96% 29.94 in 4.0 mi WSW 9.2 mph - 0.00 in Snow Light Snow
9:53 PM 10.9 °F -4.7 °F 9.0 °F 92% 29.96 in 8.0 mi West 13.8 mph - 0.00 in   Overcast
10:53 PM 10.0 °F -6.5 °F 6.1 °F 84% 29.98 in 10.0 mi West 15.0 mph - N/A   Overcast
11:53 PM 8.1 °F -10.2 °F 5.0 °F 87% 29.99 in 10.0 mi West 17.3 mph - N/A   Scattered Clouds